YAOGAN 27

Satellite information

Favourite Embed

Satellite Type and Status

PAYLOADIN ORBIT

Key statistics

Satellite YAOGAN 27 at a glance.

Uptime

3546

Days in orbit

Revolutions

≈ 13.2

Per day

Orbit

SSO

Sun Synchronous Orbit

Inclination

100.1

Latest

Satellite identification and parameters

Extended collection of information and parameters for YAOGAN 27.

Object identification

Identified? True

Debris? False

Object name: YAOGAN 27

International designator: 2015-040A

Object number (NORAD): 40878

Object ID (CCSDS): 40878

Country: PEOPLES REPUBLIC OF CHINA (PRC)

Current information (Y/N): Y

RCS size: LARGE

Orbital parameters

Period: 109.418 minutes

Inclination: 100.0868 deg

SMA: 7577.989 km

Apoapsis: 1206.653 km

Periapsis: 1193.055 km

RAAN: 131.3817 deg

Eccentricy: 0.0008972

Argument of periapsis: 63.224 deg

Mean anomaly: 296.9791 deg

Mean motion: 13.16048162 rev/day

Mean motion (dot): -0.00000005 rev/day2

B* drag term: 0.00009853 1/REarth

Two-line elements (TLE)

Creation date: May 12, 2025, 2:31 a.m.

Reference frame: TEME

Reference center: EARTH

Epoch: May 11, 2025, 10:32 p.m. UTC

TLE line 0: 0 YAOGAN 27

TLE line 1: 1 40878U 15040A 25131.93955548 -.00000005 00000-0 98530-4 0 9992

TLE line 2: 2 40878 100.0868 131.3817 0008972 63.2240 296.9791 13.16048162464884

Live tracking on map

Real-time ground track for satellite YAOGAN 27.

In-orbit conjunctions

There are no conjunctions computed for YAOGAN 27, at the moment. Check back to stay up to date, as we update our databases every day.

Go to all conjunctions

Associated space launch

YAOGAN 27 was lifted into orbit during the mission ‘Long March 4C | Yaogan-27’, on board a Long March 4C space rocket.

The launch took place on Aug. 27, 2015, 2:31 a.m. from Launch Complex 9.

For more information about the launch, click the button.

Launch to space Long March 4C | Yaogan-27
Long March 4C | Yaogan-27

Agency: N/A

Status: Launch Successful

Launch date: Aug. 27, 2015, 2:31 a.m. UTC

Rocket: Long March 4C

Launch pad: Launch Complex 9

Location: Taiyuan Satellite Launch Center, People's Republic of China

...

Latest news about this satellite

There are no fresh news available about this satellite. Check back as we update our databases every day.


Newsletter sign-up

Weekly statistics, charts and insights to help you stay on top of the space industry.